Current weather by "City, St" or "zip code"  
 

Current Conditions: Pawtucket, North Central State Airport, RI

Rain Fog/Mist


43.0 F

Last Updated on Oct 29 2020, 6:56 pm EDT
Humidity: 100%
Wind Speed: NE 16.1 mph
Barometer 29.71 in
Dewpoint: 43.0 F
Visibility: 5.00 mi
Precip: 00.16 in
Heat Index: NA
Wind Chill: 35 F
Current conditions at:

Pawtucket, North Central State Airport, RI (KSFZ)

Lat: 41.91667 Lon: 71.5

Local Radar Image active severe weather and emergency alerts image image weather storm and storm spotter reports image weather observation monitoring service image
Local
Radar
Active
Alerts
Storm Reports Obs
Monitoring

Sign-up For Email & Text Message Weather Alert Notification Services



Advertise Here

Observation History for Pawtucket, North Central State Airport, RI


Time Wind
(mph)
Vis
(mi)
Weather Precip (in) Temperature (F) Relative
Humidity
Wind
Chill
(F)
Heat
Index
(F)
Pressure
Air Dwpt altimeter
(in)
sea level
(mb)
Rmks
6:56 pm EDT NE 16.1 5.00 Rain Fog/Mist 00.16 43.0 43.0 100% 35 NA 29.71 1000.7
5:56 pm EDT NE 11.5 2.00 Rain Fog/Mist 00.07 44.0 44.1 100% 38 NA 29.71 1000.8
4:56 pm EDT NE 8.1 2.50 Light Rain Fog/Mist 00.07 44.0 44.1 100% 39 NA 29.73 1001.6
3:56 pm EDT E 8.1 1.75 Rain Fog/Mist 00.14 44.0 44.1 100% 39 NA 29.76 1002.6
2:56 pm EDT NE 5.8 3.00 Light Rain Fog/Mist 00.10 44.0 44.1 100% 41 NA 29.78 1003.3
1:56 pm EDT 4.6 4.00 Light Rain Fog/Mist 00.09 45.0 45.0 100% 43 NA 29.80 1003.9
12:56 pm EDT SE 4.6 5.00 Light Rain Fog/Mist 00.07 45.0 45.0 100% 43 NA 29.85 1005.7
11:56 am EDT 3.5 10.00 Light Rain 00.02 45.0 45.0 100% NA NA 29.86 1006.1
10:56 am EDT E 4.6 7.00 Light Rain 00.07 45.0 45.0 100% 43 NA 29.88 1006.5
9:56 am EDT N 0.0 5.00 Light Rain Fog/Mist 00.03 47.0 46.9 100% NA NA 29.93 1008.2
8:56 am EDT N 0.0 4.00 Light Rain Fog/Mist Trace 46.0 46.0 100% NA NA 29.94 1008.5
7:56 am EDT N 0.0 1.75 Light Rain Fog/Mist Trace 45.0 45.0 100% NA NA 29.93 1008.3
6:56 am EDT N 0.0 4.00 Fog/Mist -- 44.0 44.1 100% NA NA 29.94 1008.6
5:56 am EDT N 0.0 3.00 Fog/Mist -- 44.0 44.1 100% NA NA 29.95 1008.9
4:56 am EDT N 0.0 5.00 Fog/Mist -- 44.0 44.1 100% NA NA 29.95 1008.8
3:56 am EDT N 0.0 6.00 Fog/Mist -- 45.0 45.0 100% NA NA 29.95 1008.9
1:56 am EDT W 3.5 5.00 Fog/Mist -- 44.0 44.1 100% NA NA 29.95 1009.0
12:56 am EDT W 4.6 7.00 Overcast -- 45.0 45.0 100% 43 NA 29.95 1009.1
11:56 pm EDT W 6.9 4.00 Fog/Mist -- 44.0 44.1 100% 40 NA 29.95 1009.1
10:56 pm EDT N 0.0 0.75 Fog/Mist -- 44.0 44.1 100% NA NA 29.96 1009.4
9:56 pm EDT W 4.6 10.00 A Few Clouds -- 46.0 46.0 100% 44 NA 29.96 1009.4
8:56 pm EDT NW 4.6 10.00 Overcast -- 48.0 48.0 100% 46 NA 29.97 1009.6
7:56 pm EDT NW 6.9 9.00 Overcast -- 47.0 46.9 100% 44 NA 29.97 1009.6

Regional Weather Observation


Norwood, Norwood Memorial Airport, MA (KOWD)

Light Rain Fog/Mist
46.0 F

East Milton, MA (KMQE)

NULL
42.0 F

Pawtucket, North Central State Airport, RI (KSFZ)

Rain Fog/Mist
43.0 F

Fitchburg, Fitchburg Municipal Airport, MA (KFIT)

Light Rain Fog/Mist
42.0 F

Laurence G Hanscom Field Airport, MA (KBED)

Light Rain Fog/Mist
43.0 F

Boston, Logan International Airport, MA (KBOS)

Light Rain Fog/Mist
44.0 F